Regional Weather Roundup
Issued by NWS Charleston, SC

Home | Current Version | Previous Version | Text Only | Print | Product List | Glossary On
Versions: 1 2 3 4 5 6 7 8 9 10 11 12 13 14 15 16 17 18 19 20 21 22 23 24 25 26 27 28 29 30 31 32 33 34 35 36 37 38 39 40 41 42 43 44 45 46 47 48 49 50
000
ASUS42 KCHS 302126
RWRCHS

REGIONAL WEATHER ROUNDUP
NATIONAL WEATHER SERVICE CHARLESTON SC
400 PM EST FRI JAN 30 2015

NOTE: "FAIR" INDICATES FEW OR NO CLOUDS BELOW 12,000 FEET WITH NO
SIGNIFICANT WEATHER AND/OR OBSTRUCTIONS TO VISIBILITY.

NOT ALL STATIONS ARE QUALITY CONTROLLED BY THE NATIONAL
WEATHER SERVICE. USE DATA WITH CAUTION...ESPECIALLY
DEWPOINT OBSERVATIONS.

SCZ027-030-031-034>040-042>050-302200-
...SOUTHEAST SOUTH CAROLINA...

CITY           SKY/WX    TMP DP  RH WIND       PRES   REMARKS
N CHARLESTON   SUNNY     57  25  29 NW17G24   30.14R
WATERFRONT PRK   N/A     55 N/A N/A NW13G18     N/A
MOUNT PLEASANT FAIR      55  28  35 NW14G23   30.14R
PINOPOLIS        N/A     54  34  47 NW12      30.05S
MONCKS CORNER  FAIR      55  27  33 N6        30.15R
SUMMERVILLE    FAIR      55  28  35 W12G20    30.16R
BEAUFORT MCAS  SUNNY     60  31  33 N12       30.15R
BEAUFORT ARPT  FAIR      59  36  41 NW14G21   30.14R
HILTON HEAD IS SUNNY     59  32  36 NW9G17    30.15R
WALTERBORO     CLEAR     57  10  15 N12G18    30.17R
ALLENDALE      FAIR      57  30  35 VRB7G16   30.16R

...SOUTHERN MIDLANDS AND PEE DEE...

CITY           SKY/WX    TMP DP  RH WIND       PRES   REMARKS
GEORGETOWN     NOT AVBL
KINGSTREE      NOT AVBL
ORANGEBURG     SUNNY     55  15  20 NW17G25   30.17R
BARNWELL       FAIR      57  30  35 NW8       30.17S
AIKEN          FAIR      54  27  35 NW8       30.20R
MANNING        FAIR      55  18  22 N10G16    30.15R
COLUMBIA       SUNNY     54  16  22 NW14G23   30.17S
SUMTER         SUNNY     53  18  25 NW14      30.14R
FLORENCE       SUNNY     53  19  26 NW13G25   30.14R
MYRTLE BEACH   SUNNY     54  21  28 NW17G29   30.13R
N MYRTLE BEACH SUNNY     52  22  30 NW14G24   30.11R

$$

GAZ063-065-086>088-099>101-113>116-118-119-134>141-150-302200-
...SOUTHEAST GEORGIA...

CITY           SKY/WX    TMP DP  RH WIND       PRES   REMARKS
SAVANNAH ARPT  SUNNY     60  27  28 N16       30.16R
HUNTER AAF     SUNNY     60  30  31 NW15      30.14R
FORT STEWART   SUNNY     61  27  27 N15       30.15R
STATESBORO     SUNNY     58  29  33 NW10      30.19R
SYLVANIA       CLEAR     57  30  35 N7G18     30.18R
CLAXTON        FAIR      59  32  36 NW10      30.19R

...CSRA...CENTRAL AND FAR SOUTHEAST GEORGIA...

CITY           SKY/WX    TMP DP  RH WIND       PRES   REMARKS
THOMSON        SUNNY     57  28  32 W10       30.24R
AUGUSTA-BUSH   SUNNY     56  22  26 NW14      30.19R
AUGUSTA-DANIEL SUNNY     56  22  26 NW8G18    30.19R
SWAINSBORO     FAIR      59   0   9 NW12G17   30.21R
VIDALIA        SUNNY     59  30  33 NW8G17    30.20R
EASTMAN        FAIR      59  28  31 N7        30.24S
HAZLEHURST     FAIR      60  28  29 NW8       30.20R
ALMA           SUNNY     60  26  27 NW15      30.19R
WAYCROSS       SUNNY     63  32  30 NW12      30.19R
JESUP          FAIR      63  32  31 N8        30.18R
BAXLEY         FAIR      61  28  29 N9G17     30.19R
BRUNSWICK      SUNNY     63  27  25 NW9       30.17R
SAINT SIMONS   SUNNY     62  29  28 NW10      30.15R

$$

SCZ027-028-034-036>038-045-046-048>050-GAZ119-141-302200-
...LAKE AND SUPPLEMENTAL COASTAL OBSERVATIONS...

STATION/POSITION TIME  TEMP    WIND        PRES    WAVE   SWELL
                       AIR SEA DIR/SP/G            HT/PER HT/PER/DIR
                 (UTC) (F)     (DEG/KT/KT) (MB)    (FT/S) (FT/S/D)
UPR LAKE MARION  NOT AVBL
WINYAH BAY       2000   54     300/ 15     1018.0S
LAKE MURRAY      2000   51     300/ 10/ 15 1021.0F
ACE BASIN NERRS  2000   59     330/  6     1020.0S
FORT PULASKI     2100   58 53  320/ 13/ 16 1021.3R
SAPELO ISLAND    2100   62     320/ 13     1021.0S

$$

ANZ835-935-AMZ111-154-330-350-352-354-370-450-454-472-302200-
...C-MAN AND BUOY OBSERVATIONS...

STATION/POSITION TIME  TEMP    WIND        PRES    WAVE   SWELL
                       AIR SEA DIR/SP/G            HT/PER HT/PER/DIR
                 (UTC) (F)     (DEG/KT/KT) (MB)    (FT/S) (FT/S/D)
BUOY 41004       2050   56 68  310/ 17/ 23 1018.9R   5/ 5   2/ 9
BUOY 41008       2050   55 54  330/  8/ 10 1020.7R   2/ 4   2/ 50/11
FOLLY BEACH CMAN 2100   56     330/ 12/ 16 1020.7R
CAPERS NEARSHORE 2000   54     340/ 19/ 21   N/A
FRIPP NEARSHORE  2000   56     350/ 14/ 17 1019.7R


STATION/POSITION TIME  TEMP    WIND        PRES    WAVE   SWELL
                       AIR SEA DIR/SP/G            HT/PER HT/PER/DIR
                 (UTC) (F)     (DEG/KT/KT) (MB)    (FT/S) (FT/S/D)
5E ST. MARYS GA  2021      57                N/A     2/10
FRYING PAN BUOY  2050   51 63  320/ 19/ 29 1018.6R   6/ 6
BUOY 41025       2050   46 69  340/ 21/ 27 1016.1R   6/ 6   2/ 10/11
CAPE LOOKOUT NC  2100   47     320/ 15/ 19 1017.5R
BUOY 41002       2050   63 72  310/ 29/ 37 1013.3R  14/ 8
BUOY 41010       2020   69 73  290/ 23/ 29 1017.9F
ST AUGUSTINE FL  2100   60      20/  9/ 11 1021.2R


$$



USA.gov is the U.S. government's official web portal to all federal, state and local government web resources and services.